AirNav   Phillips 66 Aviation Fuel
 
 1406 users online  

XS37 Police Heliport
Pasadena, Texas, USA

GOING TO PASADENA?


FAA INFORMATION EFFECTIVE 07 DECEMBER 2017

Location

FAA Identifier: XS37
Lat/Long: 29-41-31.8240N / 095-11-45.7600W
29-41.530400N / 095-11.762667W
29.6921733 / -95.1960444
(estimated)
Elevation: 55 ft. / 17 m (estimated)
Variation: 06E (1985)
From city: 4 miles NE of PASADENA, TX
(LCTD 4NM NE OF GEONA AND 5NM NNW OF ELLINGTON FIELD.)
Time zone: UTC -6 (UTC -5 during Daylight Saving Time)
Zip code: 77506

Heliport Operations

Heliport use: Private use. Permission required prior to landing
Activation date: 10/1974
Control tower: no
ARTCC: HOUSTON CENTER
FSS: MONTGOMERY COUNTY FLIGHT SERVICE STATION
FOR FP FILING CALL CXO FSS 1-800-833-5602.
Attendance: UNATNDD
Wind indicator: no
Segmented circle: no

Heliport Communications

WX ASOS at HOU (5 nm SW): PHONE 713-847-1462
WX ASOS at LVJ (11 nm S): 118.525 (281-992-1853)
WX AWOS-3 at AXH (18 nm SW): 123.625 (281-431-6572)
WX ASOS at IAH (19 nm NW): PHONE 281-443-6397

Nearby radio navigation aids

VOR radial/distance  VOR name  Freq  Var
HUBr057/4.7HOBBY VOR/DME117.1005E
IAHr149/17.7HUMBLE VORTAC116.6005E
MHFr284/25.0TRINITY VOR/DME113.6007E
VUHr320/30.6SCHOLES VOR/DME113.0006E

 
NDB name  Hdg/Dist  Freq  Var  ID
SANJAC277/6.734705EJPA .--- .--. .-
NIXIN172/18.132605EBVP -... ...- .--.
GALVESTON305/31.520608EGLS --. .-.. ...

Heliport Services

Airframe service: NONE
Powerplant service: NONE

Runway Information

Helipad H1

Dimensions: 30 x 30 ft. / 9 x 9 m
Surface: concrete
Traffic pattern: leftleft

Heliport Ownership and Management from official FAA records

Ownership: Publicly-owned
Owner: CITY OF PASADENA
Phone 713-477-1221
Manager: LT P.D. COBB
PO BOX 3209
PASADENA, TX 77502
Phone 713-477-1221

Additional Remarks

A52 LIGHTED 200' RADIO TOWER (NO WIRES) 150' SSW OF HELIPAD.
THIS IS RESTRICTED TO POLICE AGENCY USE.

Instrument Procedures

There are no published instrument procedures at XS37.

Some nearby airports with instrument procedures:

KHOU - William P Hobby Airport (5 nm SW)
KEFD - Ellington Airport (5 nm S)
T41 - La Porte Municipal Airport (7 nm E)
KLVJ - Pearland Regional Airport (11 nm S)
KHPY - Baytown Airport (14 nm NE)
KAXH - Houston Southwest Airport (18 nm SW)
54T - RWJ Airpark (19 nm E)
KIAH - George Bush Intercontinental/Houston Airport (19 nm NW)
 
Loc | Ops | Rwys | IFR | FBO | Links
Com | Nav | Svcs | Stats | Notes


 
Area around XS37 (Police Heliport)
 
Road maps at: MapQuest Bing Google
 
Aerial photo
No photo
 
Sectional chart

 
Airport distance calculator
Flying to Police Heliport? Find the distance to fly.

From to XS37

Sunrise and sunset
Times for 18-Dec-2017
 Local
(UTC-6)
 Zulu
(UTC)
Morning civil twilight06:4512:45
Sunrise07:1113:11
Sunset17:2423:24
Evening civil twilight17:5023:50

Current date and time
Zulu (UTC)  18-Dec-2017 14:55:44
Local (UTC-6)  18-Dec-2017 08:55:44
 
METAR
KEFD 
6nm S 
181350Z 02003KT 10SM FEW017 SCT030 OVC045 15/14 A3017
KHOU 
6nm SW 
181353Z 04005KT 10SM FEW015 SCT035 OVC045 15/14 A3016 RMK AO2 SLP216 T01500144
KLVJ 
11nm S 
181353Z AUTO 05004KT 7SM OVC034 16/15 A3017 RMK AO2 SLP217 T01560150
KAXH 
18nm SW 
181435Z AUTO 04004KT 10SM SCT017 BKN024 OVC048 15/14 A3017 RMK AO2 T01490137
TAF
KEFD 
6nm S 
181200Z 1812/1918 02006KT 9999 BKN030 QNH3009INS BECMG 1812/1813 03006KT 8000 BR OVC019 QNH3011INS BECMG 1817/1818 09006KT 4800 -SHRA SCT010 BKN030 QNH3013INS BECMG 1902/1903 13006KT 8000 BR OVC020 QNH3014INS BECMG 1905/1906 13006KT 6000 BR OVC010 QNH3009INS BECMG 1908/1909 14006KT 4800 BR OVC007 QNH3006INS BECMG 1911/1912 17006KT 3200 BR OVC005 QNH3004INS BECMG 1914/1915 17006KT 4800 BR OVC010 QNH3002INS BECMG 1916/1917 18006KT 8000 BR OVC020 QNH2999INS TX19/1820Z TN13/1812Z
KHOU 
6nm SW 
181500Z 1815/1912 06008KT P6SM BKN025 OVC035 FM190300 10005KT 4SM BR OVC015 FM191000 11004KT 2SM -DZ BR OVC007
NOTAMs
Click for the latest NOTAMs
NOTAMs are issued by the DoD/FAA and will open in a separate window not controlled by AirNav.

 

 
 

Would you like to see your business listed on this page?

 If your business provides an interesting product or service to pilots, flight crews, aircraft, or users of the Police Heliport, you should consider listing it here.  To start the listing process, click on the button below
 
Add a business
 

Other Pages about Police Heliport

Update a link
 
Copyright © AirNav, LLC. All rights reserved. Privacy Policy  Contact